Location: Czernica
(51.0462°N, 17.2458°E)
Time: 20:40:22
(UTC+01:00)

ISS - Pass Details

Date: 30 January 2019
Orbit: 403 x 411 km, 51.6° (Epoch: 18 February)

Event Time Altitude Azimuth Distance (km) Brightness Sun altitude
Rises 19:01:54 0° 274° (W) 2,337 1.5 -22.6°
Reaches altitude 10° 19:03:59 10° 276° (W) 1,478 0.1 -22.9°
Enters shadow 19:06:22 44° 284° (WNW) 581 -2.7 -23.3°
